Simultaneous Nadir Overpasses (SNOs) Predictions

Prediction of SNOs between GOES-14 and NOAA-20 Satellite Orbit:

Table of predicted SNOs for the next 14.0 days since TLE Epoch: 8/28/2021
Index Date Time (GOES-14) GOES-14 Lat,Lon NOAA-20 Lat,Lon Distance(km) Time Diff (sec)
1 08/28/2021 20:27:22 -0.41,-104.34 -0.76,-105.94 182.08 80
2 08/29/2021 20:11:18 -0.41,-104.34 0.28,-101.41 334.80 80
3 08/31/2021 08:33:04 0.41,-104.18 0.97,-106.67 283.68 80
4 09/01/2021 08:11:40 0.40,-104.16 -0.07,-102.14 230.94 80
5 09/02/2021 20:33:36 -0.40,-104.30 -1.11,-107.45 358.23 80
6 09/03/2021 20:17:31 -0.40,-104.31 -0.07,-102.92 158.54 80
7 09/05/2021 08:39:18 0.39,-104.18 1.31,-108.18 456.42 80
8 09/06/2021 08:17:53 0.39,-104.16 0.27,-103.65 58.27 80
9 09/08/2021 20:21:05 -0.39,-104.28 -0.40,-104.43 17.36 80
10 09/09/2021 20:05:00 -0.39,-104.28 0.58, -99.89 499.85 80
